This is the latest recevied weather packets stored in our database for station/object CX5ACA-13. If no packets are shown the sender has not sent any weather packets the latest 10 day(s).
| Time | Temp. | Humidity | Pressure | Rain* | Wind** | Luminosity | Snow |
|---|---|---|---|---|---|---|---|
| 1778007611 | 21.67° C | 81% | 1014.4 hPa | 0 mm | - | 101 W/m² | - |
| 1778007308 | 21.67° C | 81% | 1014.7 hPa | 0 mm | - | 109 W/m² | - |
| 1778007004 | 21.67° C | 81% | 1014.6 hPa | 0 mm | - | 108 W/m² | - |
| 1778006701 | 21.67° C | 80% | 1014.5 hPa | 0 mm | - | 109 W/m² | - |
| 1778006397 | 22.22° C | 79% | 1014.5 hPa | 0 mm | - | 99 W/m² | - |
| 1778006095 | 22.78° C | 78% | 1014.3 hPa | 0 mm | - | 76 W/m² | - |
| 1778005791 | 22.78° C | 78% | 1014.5 hPa | 0 mm | - | 109 W/m² | - |
| 1778005488 | 22.78° C | 77% | 1014.3 hPa | 0 mm | - | 187 W/m² | - |
| 1778005184 | 23.33° C | 76% | 1014.5 hPa | 0 mm | - | 197 W/m² | - |
| 1778004882 | 22.78° C | 76% | 1014.5 hPa | 0 mm | - | 187 W/m² | - |
| 1778004579 | 22.22° C | 77% | 1014.4 hPa | 0 mm | - | 98 W/m² | - |
| 1778004275 | 21.67° C | 78% | 1014.4 hPa | 0 mm | - | 172 W/m² | - |
| 1778003972 | 22.22° C | 78% | 1014.5 hPa | 0 mm | - | 139 W/m² | - |
| 1778003668 | 21.67° C | 79% | 1014.2 hPa | 0 mm | - | 97 W/m² | - |
| 1778003364 | 22.22° C | 79% | 1014.4 hPa | 0 mm | - | 109 W/m² | - |
| 1778003062 | 23.33° C | 76% | 1014.4 hPa | 0 mm | - | 86 W/m² | - |
| 1778002758 | 23.33° C | 77% | 1014.2 hPa | 0 mm | - | 83 W/m² | - |
| 1778002454 | 23.33° C | 76% | 1013.9 hPa | 0 mm | - | 85 W/m² | - |
| 1778002151 | 23.33° C | 76% | 1014 hPa | 0 mm | - | 140 W/m² | - |
| 1778001850 | 23.33° C | 75% | 1014.1 hPa | 0 mm | - | 150 W/m² | - |
| 1778001549 | 23.33° C | 76% | 1014 hPa | 0 mm | - | 179 W/m² | - |
| 1778001246 | 23.33° C | 75% | 1013.8 hPa | 0 mm | - | 172 W/m² | - |
| 1778000942 | 23.89° C | 74% | 1014 hPa | 0 mm | - | 186 W/m² | - |
| 1778000640 | 23.89° C | 73% | 1013.8 hPa | 0 mm | - | 203 W/m² | - |
| 1778000335 | 23.33° C | 73% | 1014.1 hPa | 0 mm | - | 233 W/m² | - |
* Rain latest hour (hover to see other rain measurements)
** Current wind speed in m/s (hover to see current wind gust speed)